Time,TemperatureF,DewpointF,PressureIn,WindDirection,WindDirectionDegrees,WindSpeedMPH,WindSpeedGustMPH,Humidity,HourlyPrecipIn,Conditions,Clouds,dailyrainin,SolarRadiationWatts/m^2,SoftwareType,DateUTC
2013-01-01 00:03:00,46.4,30.0,30.08,SW,234,2.0,9.0,53,0.00,,,0.00,0,weatherlink.com 1.10,2013-01-01 05:03:00,
2013-01-01 00:18:00,46.6,30.0,30.08,WNW,282,0.0,4.0,52,0.00,,,0.00,0,weatherlink.com 1.10,2013-01-01 05:18:00,
2013-01-01 00:33:00,46.3,30.0,30.08,SW,226,1.0,3.0,53,0.00,,,0.00,0,weatherlink.com 1.10,2013-01-01 05:33:00,
2013-01-01 00:48:00,45.8,30.0,30.07,SW,226,0.0,3.0,55,0.00,,,0.00,0,weatherlink.com 1.10,2013-01-01 05:48:00,
2013-01-01 01:03:00,45.7,30.0,30.06,SSE,153,0.0,4.0,54,0.00,,,0.00,0,weatherlink.com 1.10,2013-01-01 06:03:00,
2013-01-01 01:18:00,45.7,30.0,30.06,SSW,200,0.0,6.0,55,0.00,,,0.00,0,weatherlink.com 1.10,2013-01-01 06:18:00,
2013-01-01 01:33:00,45.5,30.0,30.05,WNW,299,1.0,4.0,56,0.00,,,0.00,0,weatherlink.com 1.10,2013-01-01 06:33:00,
2013-01-01 01:48:00,45.5,30.0,30.05,WSW,247,0.0,4.0,56,0.00,,,0.00,0,weatherlink.com 1.10,2013-01-01 06:48:00,
2013-01-01 02:03:00,45.4,31.0,30.05,WSW,247,0.0,3.0,57,0.00,,,0.00,0,weatherlink.com 1.10,2013-01-01 07:03:00,
2013-01-01 02:18:00,45.1,30.0,30.05,WSW,247,0.0,0.0,57,0.00,,,0.00,0,weatherlink.com 1.10,2013-01-01 07:18:00,
2013-01-01 02:33:00,45.1,30.0,30.04,WSW,247,0.0,0.0,57,0.00,,,0.00,0,weatherlink.com 1.10,2013-01-01 07:33:00,
2013-01-01 02:48:00,45.0,32.0,30.03,WSW,247,0.0,1.0,60,0.00,,,0.00,0,weatherlink.com 1.10,2013-01-01 07:48:00,
2013-01-01 03:03:00,44.8,31.0,30.03,WSW,244,0.0,3.0,59,0.00,,,0.00,0,weatherlink.com 1.10,2013-01-01 08:03:00,
2013-01-01 03:18:00,45.0,31.0,30.03,SW,217,0.0,4.0,59,0.00,,,0.00,0,weatherlink.com 1.10,2013-01-01 08:18:00,
2013-01-01 03:33:00,45.0,31.0,30.03,West,259,3.0,5.0,59,0.00,,,0.00,0,weatherlink.com 1.10,2013-01-01 08:33:00,
2013-01-01 03:48:00,45.0,31.0,30.04,SW,220,0.0,4.0,58,0.00,,,0.00,0,weatherlink.com 1.10,2013-01-01 08:48:00,
2013-01-01 04:04:00,44.9,31.0,30.03,SW,220,0.0,3.0,59,0.00,,,0.00,0,weatherlink.com 1.10,2013-01-01 09:04:00,
2013-01-01 04:19:00,44.9,32.0,30.02,SW,220,0.0,4.0,60,0.00,,,0.00,0,weatherlink.com 1.10,2013-01-01 09:19:00,
2013-01-01 04:34:00,44.9,32.0,30.03,WSW,245,0.0,3.0,60,0.00,,,0.00,0,weatherlink.com 1.10,2013-01-01 09:34:00,
2013-01-01 04:49:00,44.8,31.0,30.03,WSW,244,0.0,1.0,60,0.00,,,0.00,0,weatherlink.com 1.10,2013-01-01 09:49:00,
2013-01-01 05:04:00,44.6,31.0,30.02,WSW,245,0.0,2.0,60,0.00,,,0.00,0,weatherlink.com 1.10,2013-01-01 10:04:00,
2013-01-01 05:19:00,44.5,32.0,30.02,SW,231,0.0,3.0,61,0.00,,,0.00,0,weatherlink.com 1.10,2013-01-01 10:19:00,
2013-01-01 05:34:00,44.3,33.0,30.04,WSW,254,0.0,1.0,64,0.00,,,0.00,0,weatherlink.com 1.10,2013-01-01 10:34:00,
2013-01-01 05:49:00,44.1,33.0,30.04,WSW,254,0.0,0.0,64,0.00,,,0.00,0,weatherlink.com 1.10,2013-01-01 10:49:00,
2013-01-01 06:04:00,43.6,33.0,30.04,WSW,254,0.0,0.0,66,0.00,,,0.00,0,weatherlink.com 1.10,2013-01-01 11:04:00,
2013-01-01 06:19:00,43.6,32.0,30.03,WSW,254,0.0,2.0,65,0.00,,,0.00,0,weatherlink.com 1.10,2013-01-01 11:19:00,
2013-01-01 06:34:00,44.0,33.0,30.03,SSW,196,0.0,3.0,65,0.00,,,0.00,0,weatherlink.com 1.10,2013-01-01 11:34:00,
2013-01-01 06:49:00,44.2,33.0,30.04,SSW,200,0.0,4.0,65,0.00,,,0.00,0,weatherlink.com 1.10,2013-01-01 11:49:00,
2013-01-01 07:04:00,44.2,33.0,30.05,West,268,2.0,5.0,65,0.00,,,0.00,0,weatherlink.com 1.10,2013-01-01 12:04:00,
2013-01-01 07:23:00,44.4,32.0,30.05,SW,221,2.0,4.0,63,0.00,,,0.00,0,weatherlink.com 1.10,2013-01-01 12:23:00,
2013-01-01 07:34:00,44.7,33.0,30.06,SSW,212,2.0,4.0,63,0.00,,,0.00,0,weatherlink.com 1.10,2013-01-01 12:34:00,
2013-01-01 07:49:00,45.0,33.0,30.04,South,179,0.0,7.0,62,0.00,,,0.00,5,weatherlink.com 1.10,2013-01-01 12:49:00,
2013-01-01 08:04:00,45.2,33.0,30.04,SSW,192,0.0,7.0,62,0.00,,,0.00,7,weatherlink.com 1.10,2013-01-01 13:04:00,
2013-01-01 08:19:00,45.5,33.0,30.05,SSW,211,2.0,7.0,62,0.00,,,0.00,5,weatherlink.com 1.10,2013-01-01 13:19:00,
2013-01-01 08:34:00,45.5,33.0,30.05,SSW,200,3.0,6.0,63,0.00,,,0.00,7,weatherlink.com 1.10,2013-01-01 13:34:00,
2013-01-01 08:49:00,45.0,35.0,30.04,SSW,201,1.0,7.0,68,0.00,,,0.00,23,weatherlink.com 1.10,2013-01-01 13:49:00,
2013-01-01 09:04:00,44.2,36.0,30.05,South,180,0.0,7.0,73,0.00,,,0.00,28,weatherlink.com 1.10,2013-01-01 14:04:00,
2013-01-01 09:19:00,43.5,38.0,30.06,SSW,213,0.0,2.0,80,0.01,,,0.01,32,weatherlink.com 1.10,2013-01-01 14:19:00,
2013-01-01 09:34:00,42.9,38.0,30.07,SW,231,0.0,3.0,83,0.01,,,0.01,35,weatherlink.com 1.10,2013-01-01 14:34:00,
2013-01-01 09:49:00,42.4,39.0,30.05,SSW,201,2.0,5.0,86,0.03,,,0.03,88,weatherlink.com 1.10,2013-01-01 14:49:00,
2013-01-01 10:04:00,42.4,39.0,30.05,South,170,2.0,5.0,87,0.03,,,0.03,65,weatherlink.com 1.10,2013-01-01 15:04:00,
2013-01-01 10:19:00,42.8,39.0,30.05,SW,217,4.0,7.0,87,0.02,,,0.03,58,weatherlink.com 1.10,2013-01-01 15:19:00,
2013-01-01 10:34:00,43.3,39.0,30.03,SW,225,2.0,9.0,86,0.02,,,0.03,90,weatherlink.com 1.10,2013-01-01 15:34:00,
2013-01-01 10:49:00,43.6,40.0,30.01,South,182,2.0,11.0,87,0.00,,,0.03,49,weatherlink.com 1.10,2013-01-01 15:49:00,
2013-01-01 11:04:00,43.8,41.0,30.00,WSW,248,3.0,9.0,88,0.00,,,0.03,81,weatherlink.com 1.10,2013-01-01 16:04:00,
2013-01-01 11:20:00,44.5,41.0,30.00,SSW,202,6.0,13.0,87,0.00,,,0.03,79,weatherlink.com 1.10,2013-01-01 16:20:00,
2013-01-01 11:35:00,44.8,41.0,29.99,SW,216,0.0,11.0,87,0.00,,,0.03,100,weatherlink.com 1.10,2013-01-01 16:35:00,
2013-01-01 11:49:00,45.0,42.0,29.98,West,261,0.0,10.0,88,0.00,,,0.03,39,weatherlink.com 1.10,2013-01-01 16:49:00,
2013-01-01 12:05:00,45.2,42.0,29.95,WSW,250,2.0,15.0,88,0.00,,,0.03,42,weatherlink.com 1.10,2013-01-01 17:05:00,
2013-01-01 12:21:00,45.4,41.0,29.94,SSW,196,1.0,12.0,85,0.00,,,0.03,47,weatherlink.com 1.10,2013-01-01 17:21:00,
2013-01-01 12:34:00,45.5,41.0,29.93,SSW,213,3.0,10.0,85,0.00,,,0.03,37,weatherlink.com 1.10,2013-01-01 17:34:00,
2013-01-01 12:53:00,45.7,42.0,29.92,SW,221,2.0,9.0,85,0.00,,,0.03,44,weatherlink.com 1.10,2013-01-01 17:53:00,
2013-01-01 13:05:00,45.8,42.0,29.93,South,188,3.0,7.0,85,0.00,,,0.03,40,weatherlink.com 1.10,2013-01-01 18:05:00,
2013-01-01 13:20:00,45.9,42.0,29.95,SW,234,3.0,11.0,86,0.00,,,0.03,30,weatherlink.com 1.10,2013-01-01 18:20:00,
2013-01-01 13:35:00,45.7,42.0,29.95,West,259,0.0,7.0,87,0.00,,,0.03,30,weatherlink.com 1.10,2013-01-01 18:35:00,
2013-01-01 13:50:00,45.5,43.0,29.95,WSW,254,1.0,7.0,89,0.00,,,0.03,47,weatherlink.com 1.10,2013-01-01 18:50:00,
2013-01-01 14:05:00,45.4,43.0,29.94,South,190,0.0,7.0,90,0.01,,,0.04,35,weatherlink.com 1.10,2013-01-01 19:05:00,
2013-01-01 14:21:00,45.5,43.0,29.92,SW,220,0.0,5.0,91,0.01,,,0.04,47,weatherlink.com 1.10,2013-01-01 19:21:00,
2013-01-01 14:35:00,45.8,44.0,29.94,North,5,0.0,3.0,92,0.01,,,0.04,23,weatherlink.com 1.10,2013-01-01 19:35:00,
2013-01-01 14:50:00,46.0,44.0,29.93,North,5,0.0,2.0,93,0.01,,,0.04,67,weatherlink.com 1.10,2013-01-01 19:50:00,
2013-01-01 15:06:00,46.1,44.0,29.92,South,184,0.0,5.0,93,0.01,,,0.05,39,weatherlink.com 1.10,2013-01-01 20:06:00,
2013-01-01 15:21:00,46.3,44.0,29.91,SSW,211,3.0,6.0,93,0.01,,,0.05,42,weatherlink.com 1.10,2013-01-01 20:21:00,
2013-01-01 15:35:00,46.5,45.0,29.91,SW,215,1.0,7.0,94,0.01,,,0.05,26,weatherlink.com 1.10,2013-01-01 20:35:00,
2013-01-01 15:50:00,46.7,45.0,29.92,NW,319,0.0,3.0,94,0.01,,,0.05,28,weatherlink.com 1.10,2013-01-01 20:50:00,
2013-01-01 16:07:00,47.0,45.0,29.91,SSW,207,0.0,2.0,94,0.00,,,0.05,25,weatherlink.com 1.10,2013-01-01 21:07:00,
2013-01-01 16:21:00,47.2,46.0,29.90,SSW,197,3.0,8.0,94,0.00,,,0.05,14,weatherlink.com 1.10,2013-01-01 21:21:00,
2013-01-01 16:36:00,47.4,46.0,29.93,NNW,337,3.0,5.0,94,0.01,,,0.06,5,weatherlink.com 1.10,2013-01-01 21:36:00,
2013-01-01 16:51:00,47.4,46.0,29.95,NNW,331,1.0,2.0,94,0.01,,,0.06,0,weatherlink.com 1.10,2013-01-01 21:51:00,
2013-01-01 17:06:00,47.4,46.0,29.95,NNW,331,0.0,0.0,94,0.01,,,0.06,0,weatherlink.com 1.10,2013-01-01 22:06:00,
2013-01-01 17:21:00,47.2,46.0,29.95,NNW,331,0.0,2.0,94,0.02,,,0.07,0,weatherlink.com 1.10,2013-01-01 22:21:00,
2013-01-01 17:36:00,46.9,46.0,29.95,NNW,331,0.0,1.0,95,0.01,,,0.07,0,weatherlink.com 1.10,2013-01-01 22:36:00,
2013-01-01 17:51:00,47.0,46.0,29.94,NNW,331,0.0,3.0,95,0.02,,,0.08,0,weatherlink.com 1.10,2013-01-01 22:51:00,
2013-01-01 18:21:00,47.1,46.0,29.96,South,186,0.0,0.0,95,0.03,,,0.10,0,weatherlink.com 1.10,2013-01-01 23:21:00,
2013-01-01 18:36:00,46.9,46.0,29.96,South,186,0.0,0.0,95,0.04,,,0.11,0,weatherlink.com 1.10,2013-01-01 23:36:00,
2013-01-01 18:51:00,46.8,46.0,29.95,South,186,0.0,0.0,96,0.03,,,0.11,0,weatherlink.com 1.10,2013-01-01 23:51:00,
2013-01-01 19:06:00,46.9,46.0,29.95,South,186,0.0,0.0,96,0.03,,,0.12,0,weatherlink.com 1.10,2013-01-02 00:06:00,
2013-01-01 19:21:00,46.8,46.0,29.95,South,186,0.0,0.0,96,0.03,,,0.13,0,weatherlink.com 1.10,2013-01-02 00:21:00,
2013-01-01 19:36:00,46.8,46.0,29.96,South,186,0.0,0.0,96,0.02,,,0.13,0,weatherlink.com 1.10,2013-01-02 00:36:00,
2013-01-01 19:51:00,46.7,46.0,29.97,South,186,0.0,0.0,96,0.03,,,0.14,0,weatherlink.com 1.10,2013-01-02 00:51:00,
2013-01-01 20:06:00,47.1,46.0,29.95,South,186,0.0,0.0,96,0.02,,,0.14,0,weatherlink.com 1.10,2013-01-02 01:06:00,
2013-01-01 20:21:00,47.1,46.0,29.96,South,186,0.0,0.0,96,0.02,,,0.15,0,weatherlink.com 1.10,2013-01-02 01:21:00,
2013-01-01 20:36:00,47.0,46.0,29.97,South,186,0.0,0.0,96,0.02,,,0.15,0,weatherlink.com 1.10,2013-01-02 01:36:00,
2013-01-01 20:51:00,46.9,46.0,29.96,South,186,0.0,0.0,96,0.02,,,0.16,0,weatherlink.com 1.10,2013-01-02 01:51:00,
2013-01-01 21:06:00,47.1,46.0,29.96,South,186,0.0,0.0,96,0.02,,,0.17,0,weatherlink.com 1.10,2013-01-02 02:06:00,
2013-01-01 21:21:00,47.2,46.0,29.97,South,186,0.0,0.0,96,0.03,,,0.18,0,weatherlink.com 1.10,2013-01-02 02:21:00,
2013-01-01 21:36:00,47.0,46.0,29.98,South,186,0.0,0.0,96,0.04,,,0.19,0,weatherlink.com 1.10,2013-01-02 02:36:00,
2013-01-01 21:51:00,46.9,46.0,29.96,South,186,0.0,0.0,96,0.04,,,0.20,0,weatherlink.com 1.10,2013-01-02 02:51:00,
2013-01-01 22:06:00,46.9,46.0,29.96,South,186,0.0,0.0,96,0.04,,,0.21,0,weatherlink.com 1.10,2013-01-02 03:06:00,
2013-01-01 22:21:00,46.8,46.0,29.97,South,186,0.0,0.0,96,0.03,,,0.21,0,weatherlink.com 1.10,2013-01-02 03:21:00,
2013-01-01 22:36:00,46.8,46.0,29.95,South,186,0.0,0.0,96,0.03,,,0.22,0,weatherlink.com 1.10,2013-01-02 03:36:00,
2013-01-01 22:51:00,46.7,46.0,29.95,South,186,0.0,0.0,96,0.02,,,0.22,0,weatherlink.com 1.10,2013-01-02 03:51:00,
2013-01-01 23:06:00,46.6,46.0,29.95,South,186,0.0,0.0,96,0.01,,,0.22,0,weatherlink.com 1.10,2013-01-02 04:06:00,
2013-01-01 23:21:00,46.5,46.0,29.96,South,186,0.0,0.0,96,0.02,,,0.23,0,weatherlink.com 1.10,2013-01-02 04:21:00,
2013-01-01 23:36:00,46.4,46.0,29.95,South,186,0.0,0.0,97,0.01,,,0.23,0,weatherlink.com 1.10,2013-01-02 04:36:00,
2013-01-01 23:51:00,46.4,46.0,29.95,South,186,0.0,0.0,97,0.02,,,0.24,0,weatherlink.com 1.10,2013-01-02 04:51:00,